Location: *
(46.0770°N, 1.6444°E)
Time: 01:45:00
(UTC+00:00)

Cosmos 1371 Rocket - Pass Details

Date: 16 September 2019
Orbit: 753 x 790 km, 74.0° (Epoch: 15 October)

Event Time Altitude Azimuth Distance (km) Brightness Sun altitude
Rises 20:00:17 0° 193° (SSW) 3,234 7.1 -20.2°
Reaches altitude 10° 20:02:38 10° 191° (S) 2,317 6.3 -20.6°
Maximum altitude 20:07:53 70° 108° (ESE) 831 3.9 -21.4°
Drops below altitude 10° 20:13:12 10° 26° (NNE) 2,356 6.6 -22.2°
Sets 20:15:37 0° 24° (NNE) 3,292 7.4 -22.6°
